Simultaneous Nadir Overpasses (SNOs) Predictions

Prediction of SNOs between GOES-14 and AQUA Satellite Orbit:

Table of predicted SNOs for the next 14.0 days since TLE Epoch: 1/10/2020
Index Date Time (GOES-14) GOES-14 Lat,Lon AQUA Lat,Lon Distance(km) Time Diff (sec)
1 01/11/2020 08:26:50 -0.00,-104.31 -0.26,-103.21 125.67 80
2 01/11/2020 20:48:13 0.01,-104.04 -0.91,-108.39 493.98 80
3 01/13/2020 08:14:39 -0.00,-104.30 -0.85,-100.24 461.55 80
4 01/13/2020 20:36:02 0.01,-104.04 -0.31,-105.42 157.98 80
5 01/15/2020 20:26:33 0.01,-104.04 0.34,-102.48 178.20 80
6 01/16/2020 08:45:08 -0.01,-104.31 0.70,-107.64 378.78 80
7 01/18/2020 08:35:38 -0.01,-104.31 0.04,-104.69 42.51 80
8 01/20/2020 08:20:47 -0.00,-104.32 -0.57,-101.73 294.12 80
9 01/20/2020 20:42:11 0.00,-104.05 -0.59,-106.91 325.68 80
10 01/22/2020 20:32:40 -0.01,-104.05 0.02,-103.96 11.02 80




NCC Satellite Simultaneous Nadir Overpasses (SNOs) Prediction Service
